SCP
0 0 0 0 0 0 0 0 0 0 0 0 0 0 0 0 0 0 0 0 0 0 0 0 0 0 0 0 0 0 0 0 0 0 0 0 0 0 0 0 0 0 0 0
0 0 0 0 0 0 0 0 0 0 0 0 0 0 0 0 0 0 0 0 0 0 0 0 0 0 0 0 0 0 0 0 0 0 0 0 0 0 0 0 0 0 0 0
0 0 0 0 0 0 0 0 0 0 0 0 0 0 0 0 0 0 0 0 0 0 0 0 0 0 0 0 0 0 0 0 0 0 0 0 0 0 0 0 0 0 0 0
0 0 0 0 0 0 0 0 0 0 0 0 0 0 0 0 0 0 0 0 0 0 0 0 0 0 0 0 0 0 0 0 0 0 0 0 0 0 0 0 0 0 0 0
0 0 0 0 0 0 0 0 0 0 0 0 0 0 0 0 0 0 0 0 0 0 0 0 0 0 0 0 0 0 0 0 0 0 0 0 0 0 0 0 0 0 0 -0
0 0 0 0 0 0 0 0 0 0 0 0 0 0 0 0 0 0 0 0 0 0 0 0 0 0 0 0 0 0 0 0 0 0 0 0 0 0 0 0 0 0 -0 0
0 0 0 0 0 0 0 0 0 0 0 0 0 0 0 0 0 0 0 0 0 0 0 0 0 0 0 0 0 0 0 0 0 0 0 0 0 0 0 0 -0 0 0 -0
0 0 0 0 0 0 0 0 0 0 0 0 0 0 0 0 0 0 0 0 0 0 0 0 0 0 0 0 0 0 0 0 0 0 0 0 0 0 -0 -0 0 0 0 0
0 0 0 0 0 0 0 0 0 0 0 0 0 0 0 0 0 0 0 0 0 0 0 0 0 0 0 0 0 0 0 0 0 0 0 0 0 0 0 0 0 0 0 0
0 0 0 0 0 0 0 0 0 0 0 0 0 0 0 0 0 0 0 0 0 0 0 0 0 0 0 0 0 0 0 0 0 0 0 0 0 0 0 0 0 0 0 0
0 0 0 0 0 0 0 0 0 0 0 0 0 0 0 0 0 0 0 0 0 0 0 0 0 0 0 0 0 0 0 0 0 0 0 0 0 0 0 0 0 0 0 0
0 0 0 0 0 0 0 0 0 0 0 0 0 0 0 0 0 0 0 0 0 0 0 0 0 0 0 0 0 0 0 0 0 0 0 0 0 0 0 0 0 0 0 0
0 0 0 0 0 0 0 0 0 0 0 0 0 0 0 0 0 0 0 0 0 0 0 0 0 0 0 0 0 0 0 0 0 0 0 0 0 0 0 0 0 0 0 0
0 0 0 0 0 0 0 0 0 0 0 0 0 0 0 0 0 0 0 0 0 0 0 0 0 0 0 0 0 0 0 0 0 0 0 0 0 0 0 0 0 0 0 0
0 0 0 0 0 0 0 0 0 0 0 0 0 0 0 0 0 0 0 0 0 0 0 0 0 0 0 0 0 0 0 0 0 0 0 0 0 0 0 0 0 0 0 0
0 0 0 0 0 0 0 0 0 0 0 0 0 0 0 0 0 0 0 0 0 0 0 0 0 0 0 0 0 0 0 0 0 0 0 0 0 0 0 0 0 0 0 0
0 0 0 0 0 0 0 0 0 0 0 0 0 0 0 0 0 0 0 0 0 0 0 0 0 0 0 0 0 0 0 0 0 0 0 0 0 0 0 0 0 0 0 0
0 0 0 0 0 0 0 0 0 0 0 0 0 0 0 0 0 0 0 0 0 0 0 0 0 0 0 0 0 0 0 0 0 0 0 0 0 0 0 0 0 0 0 0
0 0 0 0 0 0 0 0 0 0 0 0 0 0 0 0 0 0 0 0 0 0 0 0 0 0 0 0 0 0 0 0 0 0 0 0 0 0 0 0 0 0 0 0
0 0 0 0 0 0 0 0 0 0 0 0 0 0 0 0 0 0 0 0 0 0 0 0 0 0 0 0 0 0 0 -0 0 -0 -0 0 0 0 0 0 0 0 0 0
0 0 0 0 0 0 0 0 0 0 0 0 0 0 0 0 0 0 0 0 0 0 0 0 0 0 0 0 0 0 0 -0 -0 0 0 0 0 0 0 0 0 0 0 0
0 0 0 0 0 0 0 0 0 0 0 0 0 0 0 0 0 0 0 0 0 0 0 0 0 0 0 0 0 0 0 -0 0 0 0 0 0 0 0 0 0 0 0 0
0 0 0 0 0 0 0 0 0 0 0 0 0 0 0 0 0 0 0 0 0 0 0 0 0 0 0 0 0 0 0 0 -0 0 0 0 0 0 0 0 0 0 0 0
0 0 0 0 0 0 0 0 0 0 0 0 0 0 0 0 0 0 0 0 0 0 0 0 0 0 0 0 0 0 0 -0 0 0 0 0 0 0 0 0 0 0 0 0
0 0 0 0 0 0 0 0 0 0 0 0 0 0 0 0 0 0 0 0 0 0 0 0 0 0 0 0 0 0 0 0 -0 0 0 0 0 0 0 0 0 0 0 0
0 0 0 0 0 0 0 0 0 0 0 0 0 0 0 0 0 0 0 0 0 0 0 0 0 0 0 0 0 0 0 -0 -0 0 0 0 0 0 0 0 0 0 0 0
0 0 0 0 0 0 0 0 0 0 0 0 0 0 0 0 0 0 0 0 0 0 0 0 0 0 0 0 0 0 0 0 0 -0 0 0 0 0 0 0 0 0 0 0
Wind_Speed_500mb
4 3 4 2 4 3 9 10 9 9 8 13 13 19 31 18 12 16 21 23 13 16 24 29 32 33 32 33 36 42 44 50 57 52 34 32 37 43 49 36 33 30 29 24
3 3 4 2 4 8 6 0 9 5 9 14 9 11 7 11 18 30 28 25 20 27 32 37 40 34 34 33 38 41 45 55 56 41 30 34 40 50 41 35 28 24 24 20
5 4 5 8 7 5 6 7 6 7 10 11 8 5 5 10 23 29 24 26 32 40 43 46 41 37 32 34 39 42 52 57 46 32 31 38 45 44 38 31 23 23 21 15
3 6 2 10 5 8 8 8 6 7 8 4 2 6 11 13 22 24 21 29 39 49 56 55 46 37 34 34 37 46 54 49 35 27 35 40 45 39 35 27 21 19 15 8
7 5 9 8 7 10 9 12 3 3 5 5 8 11 15 20 24 27 33 42 47 54 60 54 46 40 31 32 41 49 50 39 27 30 37 46 38 41 29 25 14 8 6 9
6 8 12 15 4 9 9 10 4 4 1 2 1 4 10 31 25 18 33 33 40 45 45 46 46 37 29 33 40 50 42 30 28 36 44 36 41 34 19 15 7 8 7 9
4 7 13 12 11 13 8 13 7 4 5 7 4 6 12 20 23 25 31 38 36 40 41 45 42 32 27 33 47 45 34 26 32 40 31 37 35 24 21 12 6 9 8 13
5 3 12 13 10 11 10 12 7 2 4 6 5 7 16 23 29 33 38 42 47 51 51 41 33 26 26 36 43 37 27 27 34 30 34 37 29 23 21 14 11 14 12 18
15 11 9 15 5 9 6 7 8 6 7 6 9 15 19 25 34 41 48 51 51 50 47 40 27 21 26 38 38 30 24 30 32 25 36 32 31 27 21 16 18 12 14 21
4 3 13 16 17 8 9 11 13 8 5 5 8 14 23 31 39 46 52 57 52 50 45 31 21 18 30 34 32 25 27 30 21 23 28 32 30 29 25 22 15 18 17 18
6 11 5 4 14 19 18 13 7 4 2 6 11 19 24 32 43 52 58 54 49 48 39 20 13 20 28 31 25 23 26 20 20 18 22 26 28 29 29 24 15 12 15 17
10 18 9 9 19 17 13 9 8 3 1 8 14 16 22 30 40 51 56 51 51 44 27 11 12 21 24 27 19 23 20 15 21 17 19 21 19 22 22 21 18 20 18 15
8 15 14 22 17 13 16 13 11 4 9 9 9 17 24 32 40 49 55 47 47 32 13 5 14 17 24 22 16 20 16 12 20 19 19 18 16 16 17 17 17 19 17 15
13 24 20 24 16 18 17 14 12 11 8 7 14 21 27 31 39 48 56 45 38 20 5 10 13 17 22 16 14 17 13 10 17 19 23 21 18 18 17 17 21 23 19 17
26 33 19 26 29 27 22 18 15 11 8 12 20 26 25 34 39 49 51 41 28 11 8 14 13 19 20 10 12 13 12 8 13 15 21 23 23 25 26 25 29 27 24 24
27 31 25 38 37 29 22 15 8 7 12 21 30 34 35 34 35 41 43 38 18 9 14 13 14 16 16 6 9 11 11 8 10 13 18 22 23 26 29 27 27 23 23 22
36 42 43 40 36 28 18 8 4 11 23 31 34 34 34 33 31 33 35 29 10 5 10 10 12 14 13 4 6 8 9 6 9 12 18 24 25 28 22 20 22 16 15 15
32 35 43 42 40 25 13 3 8 17 24 28 31 32 31 31 35 35 34 19 5 8 7 9 8 12 11 2 2 7 8 3 10 13 16 16 12 12 10 9 16 21 15 17
43 37 43 37 26 16 6 4 12 15 19 27 37 39 31 28 30 31 24 8 2 4 8 9 9 11 9 1 3 6 6 5 9 14 17 12 2 6 17 15 15 13 14 15
42 46 42 33 22 9 5 12 17 19 23 32 39 42 38 26 24 17 7 4 5 4 6 7 6 8 7 2 4 4 7 8 6 9 15 13 8 4 7 8 7 11 13 17
54 49 38 25 15 16 9 10 8 15 26 33 41 46 46 26 20 12 9 4 8 11 9 7 5 6 3 0 2 1 8 5 1 10 9 14 14 8 4 8 8 12 17 22
49 40 28 17 11 6 4 3 5 11 19 29 36 43 46 28 15 11 7 9 13 17 11 8 5 6 5 4 2 4 6 10 4 7 13 11 13 12 7 4 7 11 15 18
39 30 19 8 8 4 8 14 11 12 19 30 40 43 45 31 14 12 9 10 15 10 10 5 5 6 1 9 2 3 5 10 9 4 9 13 12 14 13 7 5 8 12 15
22 15 12 12 9 7 19 17 15 14 20 33 41 41 39 21 10 13 13 12 12 13 9 4 3 1 7 3 1 5 6 8 9 4 4 12 13 14 12 11 12 11 10 12
24 11 2 10 10 8 17 12 12 17 24 35 41 35 23 15 11 10 8 8 14 13 7 2 2 7 5 2 2 2 7 7 9 8 1 12 13 10 7 7 9 13 12 13
18 14 13 17 19 13 12 14 16 23 31 36 37 33 16 9 10 3 9 10 10 11 10 6 7 9 3 6 7 6 7 13 18 14 9 3 10 13 13 9 9 9 11 14
32 33 33 28 29 19 21 19 22 25 30 33 37 23 9 8 6 5 7 10 13 14 13 10 10 5 9 11 11 12 15 16 19 23 22 16 10 12 17 16 15 13 12 14
Wind_Direction_500mb
161 126 129 200 319 10 210 217 177 268 229 278 254 220 220 214 212 224 223 211 241 282 288 284 278 277 286 299 311 315 319 322 323 325 322 317 315 317 322 321 321 327 328 328
125 57 9 269 324 291 228 301 261 273 269 217 300 254 246 245 246 233 228 227 275 298 288 290 280 277 282 298 311 316 322 324 325 327 321 315 316 324 325 328 326 329 329 330
238 334 34 349 227 244 270 226 213 238 262 339 355 346 256 241 235 246 253 259 287 299 294 293 286 280 289 305 312 319 323 325 326 327 319 317 324 327 327 332 332 338 335 339
168 22 194 242 247 232 238 269 251 274 321 22 26 300 309 292 257 264 274 289 302 307 303 296 287 283 292 304 317 324 323 328 330 322 319 325 332 335 343 346 342 341 349 60
138 189 287 291 208 182 175 276 195 247 334 30 14 349 308 324 284 283 300 320 318 312 308 305 292 289 290 307 320 324 329 336 332 324 328 332 337 339 338 349 346 1 83 75
139 169 211 239 184 150 110 298 253 188 270 261 172 30 284 358 358 346 333 345 348 350 345 324 299 289 296 313 325 333 338 340 332 333 333 337 342 344 345 342 24 76 99 95
134 224 289 245 174 143 90 239 184 218 218 211 182 226 350 4 8 358 339 334 340 342 343 331 301 289 297 321 333 340 343 341 339 338 344 346 346 359 358 12 87 102 94 91
101 145 273 180 120 167 209 175 166 187 63 74 52 20 5 8 3 355 348 345 341 336 332 312 287 282 305 330 341 346 347 347 344 351 358 351 7 16 20 34 97 97 94 100
174 217 284 226 290 200 149 153 169 139 107 75 11 2 7 7 354 346 341 339 338 336 326 303 288 294 323 338 349 354 355 347 351 10 1 11 29 28 35 45 83 79 100 108
75 275 268 267 235 221 179 168 152 148 121 346 359 8 8 354 346 343 342 339 333 330 319 304 288 308 326 346 354 2 355 355 15 13 22 34 40 41 56 76 70 87 103 108
252 272 252 214 192 173 155 165 179 150 8 352 358 357 353 347 340 341 337 338 334 327 320 299 297 320 335 354 1 0 2 17 26 28 36 47 51 49 52 66 75 87 107 102
218 217 200 158 167 178 180 163 140 160 275 334 339 337 340 335 332 339 341 340 334 328 327 304 312 326 346 360 3 4 5 35 30 42 47 52 62 54 66 62 67 93 98 89
231 206 188 159 162 173 164 155 154 216 281 300 307 328 330 327 329 334 339 339 335 335 339 313 323 337 355 0 8 8 17 52 39 46 48 56 60 64 69 72 82 92 88 89
194 171 158 176 183 177 179 182 210 236 270 275 298 314 319 320 327 339 344 337 337 343 12 331 335 350 359 1 18 12 22 76 49 48 54 64 64 71 79 88 94 87 83 92
213 202 226 199 176 176 188 192 206 239 285 307 316 321 318 320 330 341 346 343 344 5 2 339 346 353 359 9 28 21 23 100 57 61 63 69 77 76 81 90 94 81 82 96
206 213 201 180 172 177 186 192 227 282 309 320 321 318 313 312 323 335 343 343 352 19 346 345 345 357 356 22 34 26 28 106 76 82 77 80 87 91 95 86 82 76 74 80
196 167 169 172 178 180 187 200 272 324 332 329 330 333 334 330 329 333 337 337 325 299 323 338 340 354 355 26 40 30 35 101 108 111 107 101 98 91 95 81 62 59 53 71
217 211 204 199 186 178 182 213 341 346 346 347 343 336 335 337 337 336 334 328 284 295 294 319 331 352 359 26 72 23 31 55 143 146 141 127 111 102 100 82 91 79 88 98
209 200 187 179 172 176 173 15 17 19 24 23 14 0 344 334 331 335 342 358 205 306 304 299 323 354 2 59 183 25 26 9 159 173 173 168 135 27 68 95 98 108 104 111
196 188 176 168 170 181 138 94 76 60 32 19 10 3 3 352 341 340 18 41 172 284 271 263 319 360 14 34 173 38 11 359 161 179 193 183 192 256 35 48 108 127 132 141
177 168 167 166 158 144 118 122 84 36 22 9 3 1 357 343 349 339 307 255 233 279 260 253 311 336 5 274 201 55 10 342 146 185 199 192 198 243 299 19 99 135 154 154
164 157 150 145 150 157 184 261 342 352 355 356 354 351 351 339 309 327 334 312 284 277 241 248 283 287 287 249 282 222 2 356 356 187 201 216 217 224 230 114 119 150 165 176
161 159 155 191 278 247 263 266 280 319 334 341 343 343 343 335 302 297 290 314 311 232 226 245 287 296 337 137 155 218 255 349 353 180 200 204 226 228 228 219 204 192 187 198
158 150 165 184 187 262 277 266 274 308 327 336 335 333 338 337 287 272 291 264 259 228 223 245 283 288 127 98 233 221 232 281 344 56 164 189 217 226 234 228 224 222 221 229
143 148 187 269 252 351 271 271 295 325 326 329 328 327 324 336 306 286 266 251 242 207 182 143 319 157 146 160 214 221 241 278 306 332 2 195 214 214 217 228 230 218 242 237
172 184 207 240 266 253 278 289 315 329 326 322 325 323 303 306 309 277 223 224 208 182 139 99 119 151 239 276 252 246 261 273 278 286 294 243 218 207 214 234 241 246 240 235
246 246 234 240 265 265 267 292 315 323 318 319 320 317 269 285 284 229 220 214 184 160 159 142 130 64 349 268 266 276 276 277 267 266 265 265 227 226 223 241 251 261 270 238
Wind_Speed_850mb
4 3 4 2 4 3 9 10 9 9 8 13 13 19 31 18 12 16 21 23 13 16 24 29 32 33 32 33 36 42 44 50 57 52 34 32 37 43 49 36 33 30 29 24
3 3 4 2 4 8 6 0 9 5 9 14 9 11 7 11 18 30 28 25 20 27 32 37 40 34 34 33 38 41 45 55 56 41 30 34 40 50 41 35 28 24 24 20
5 4 5 8 7 5 6 7 6 7 10 11 8 5 5 10 23 29 24 26 32 40 43 46 41 37 32 34 39 42 52 57 46 32 31 38 45 44 38 31 23 23 21 15
3 6 2 10 5 8 8 8 6 7 8 4 2 6 11 13 22 24 21 29 39 49 56 55 46 37 34 34 37 46 54 49 35 27 35 40 45 39 35 27 21 19 15 8
7 5 9 8 7 10 9 12 3 3 5 5 8 11 15 20 24 27 33 42 47 54 60 54 46 40 31 32 41 49 50 39 27 30 37 46 38 41 29 25 14 8 6 9
6 8 12 15 4 9 9 10 4 4 1 2 1 4 10 31 25 18 33 33 40 45 45 46 46 37 29 33 40 50 42 30 28 36 44 36 41 34 19 15 7 8 7 9
4 7 13 12 11 13 8 13 7 4 5 7 4 6 12 20 23 25 31 38 36 40 41 45 42 32 27 33 47 45 34 26 32 40 31 37 35 24 21 12 6 9 8 13
5 3 12 13 10 11 10 12 7 2 4 6 5 7 16 23 29 33 38 42 47 51 51 41 33 26 26 36 43 37 27 27 34 30 34 37 29 23 21 14 11 14 12 18
15 11 9 15 5 9 6 7 8 6 7 6 9 15 19 25 34 41 48 51 51 50 47 40 27 21 26 38 38 30 24 30 32 25 36 32 31 27 21 16 18 12 14 21
4 3 13 16 17 8 9 11 13 8 5 5 8 14 23 31 39 46 52 57 52 50 45 31 21 18 30 34 32 25 27 30 21 23 28 32 30 29 25 22 15 18 17 18
6 11 5 4 14 19 18 13 7 4 2 6 11 19 24 32 43 52 58 54 49 48 39 20 13 20 28 31 25 23 26 20 20 18 22 26 28 29 29 24 15 12 15 17
10 18 9 9 19 17 13 9 8 3 1 8 14 16 22 30 40 51 56 51 51 44 27 11 12 21 24 27 19 23 20 15 21 17 19 21 19 22 22 21 18 20 18 15
8 15 14 22 17 13 16 13 11 4 9 9 9 17 24 32 40 49 55 47 47 32 13 5 14 17 24 22 16 20 16 12 20 19 19 18 16 16 17 17 17 19 17 15
13 24 20 24 16 18 17 14 12 11 8 7 14 21 27 31 39 48 56 45 38 20 5 10 13 17 22 16 14 17 13 10 17 19 23 21 18 18 17 17 21 23 19 17
26 33 19 26 29 27 22 18 15 11 8 12 20 26 25 34 39 49 51 41 28 11 8 14 13 19 20 10 12 13 12 8 13 15 21 23 23 25 26 25 29 27 24 24
27 31 25 38 37 29 22 15 8 7 12 21 30 34 35 34 35 41 43 38 18 9 14 13 14 16 16 6 9 11 11 8 10 13 18 22 23 26 29 27 27 23 23 22
36 42 43 40 36 28 18 8 4 11 23 31 34 34 34 33 31 33 35 29 10 5 10 10 12 14 13 4 6 8 9 6 9 12 18 24 25 28 22 20 22 16 15 15
32 35 43 42 40 25 13 3 8 17 24 28 31 32 31 31 35 35 34 19 5 8 7 9 8 12 11 2 2 7 8 3 10 13 16 16 12 12 10 9 16 21 15 17
43 37 43 37 26 16 6 4 12 15 19 27 37 39 31 28 30 31 24 8 2 4 8 9 9 11 9 1 3 6 6 5 9 14 17 12 2 6 17 15 15 13 14 15
42 46 42 33 22 9 5 12 17 19 23 32 39 42 38 26 24 17 7 4 5 4 6 7 6 8 7 2 4 4 7 8 6 9 15 13 8 4 7 8 7 11 13 17
54 49 38 25 15 16 9 10 8 15 26 33 41 46 46 26 20 12 9 4 8 11 9 7 5 6 3 0 2 1 8 5 1 10 9 14 14 8 4 8 8 12 17 22
49 40 28 17 11 6 4 3 5 11 19 29 36 43 46 28 15 11 7 9 13 17 11 8 5 6 5 4 2 4 6 10 4 7 13 11 13 12 7 4 7 11 15 18
39 30 19 8 8 4 8 14 11 12 19 30 40 43 45 31 14 12 9 10 15 10 10 5 5 6 1 9 2 3 5 10 9 4 9 13 12 14 13 7 5 8 12 15
22 15 12 12 9 7 19 17 15 14 20 33 41 41 39 21 10 13 13 12 12 13 9 4 3 1 7 3 1 5 6 8 9 4 4 12 13 14 12 11 12 11 10 12
24 11 2 10 10 8 17 12 12 17 24 35 41 35 23 15 11 10 8 8 14 13 7 2 2 7 5 2 2 2 7 7 9 8 1 12 13 10 7 7 9 13 12 13
18 14 13 17 19 13 12 14 16 23 31 36 37 33 16 9 10 3 9 10 10 11 10 6 7 9 3 6 7 6 7 13 18 14 9 3 10 13 13 9 9 9 11 14
32 33 33 28 29 19 21 19 22 25 30 33 37 23 9 8 6 5 7 10 13 14 13 10 10 5 9 11 11 12 15 16 19 23 22 16 10 12 17 16 15 13 12 14
Wind_Direction_850mb
161 126 129 200 319 10 210 217 177 268 229 278 254 220 220 214 212 224 223 211 241 282 288 284 278 277 286 299 311 315 319 322 323 325 322 317 315 317 322 321 321 327 328 328
125 57 9 269 324 291 228 301 261 273 269 217 300 254 246 245 246 233 228 227 275 298 288 290 280 277 282 298 311 316 322 324 325 327 321 315 316 324 325 328 326 329 329 330
238 334 34 349 227 244 270 226 213 238 262 339 355 346 256 241 235 246 253 259 287 299 294 293 286 280 289 305 312 319 323 325 326 327 319 317 324 327 327 332 332 338 335 339
168 22 194 242 247 232 238 269 251 274 321 22 26 300 309 292 257 264 274 289 302 307 303 296 287 283 292 304 317 324 323 328 330 322 319 325 332 335 343 346 342 341 349 60
138 189 287 291 208 182 175 276 195 247 334 30 14 349 308 324 284 283 300 320 318 312 308 305 292 289 290 307 320 324 329 336 332 324 328 332 337 339 338 349 346 1 83 75
139 169 211 239 184 150 110 298 253 188 270 261 172 30 284 358 358 346 333 345 348 350 345 324 299 289 296 313 325 333 338 340 332 333 333 337 342 344 345 342 24 76 99 95
134 224 289 245 174 143 90 239 184 218 218 211 182 226 350 4 8 358 339 334 340 342 343 331 301 289 297 321 333 340 343 341 339 338 344 346 346 359 358 12 87 102 94 91
101 145 273 180 120 167 209 175 166 187 63 74 52 20 5 8 3 355 348 345 341 336 332 312 287 282 305 330 341 346 347 347 344 351 358 351 7 16 20 34 97 97 94 100
174 217 284 226 290 200 149 153 169 139 107 75 11 2 7 7 354 346 341 339 338 336 326 303 288 294 323 338 349 354 355 347 351 10 1 11 29 28 35 45 83 79 100 108
75 275 268 267 235 221 179 168 152 148 121 346 359 8 8 354 346 343 342 339 333 330 319 304 288 308 326 346 354 2 355 355 15 13 22 34 40 41 56 76 70 87 103 108
252 272 252 214 192 173 155 165 179 150 8 352 358 357 353 347 340 341 337 338 334 327 320 299 297 320 335 354 1 0 2 17 26 28 36 47 51 49 52 66 75 87 107 102
218 217 200 158 167 178 180 163 140 160 275 334 339 337 340 335 332 339 341 340 334 328 327 304 312 326 346 360 3 4 5 35 30 42 47 52 62 54 66 62 67 93 98 89
231 206 188 159 162 173 164 155 154 216 281 300 307 328 330 327 329 334 339 339 335 335 339 313 323 337 355 0 8 8 17 52 39 46 48 56 60 64 69 72 82 92 88 89
194 171 158 176 183 177 179 182 210 236 270 275 298 314 319 320 327 339 344 337 337 343 12 331 335 350 359 1 18 12 22 76 49 48 54 64 64 71 79 88 94 87 83 92
213 202 226 199 176 176 188 192 206 239 285 307 316 321 318 320 330 341 346 343 344 5 2 339 346 353 359 9 28 21 23 100 57 61 63 69 77 76 81 90 94 81 82 96
206 213 201 180 172 177 186 192 227 282 309 320 321 318 313 312 323 335 343 343 352 19 346 345 345 357 356 22 34 26 28 106 76 82 77 80 87 91 95 86 82 76 74 80
196 167 169 172 178 180 187 200 272 324 332 329 330 333 334 330 329 333 337 337 325 299 323 338 340 354 355 26 40 30 35 101 108 111 107 101 98 91 95 81 62 59 53 71
217 211 204 199 186 178 182 213 341 346 346 347 343 336 335 337 337 336 334 328 284 295 294 319 331 352 359 26 72 23 31 55 143 146 141 127 111 102 100 82 91 79 88 98
209 200 187 179 172 176 173 15 17 19 24 23 14 0 344 334 331 335 342 358 205 306 304 299 323 354 2 59 183 25 26 9 159 173 173 168 135 27 68 95 98 108 104 111
196 188 176 168 170 181 138 94 76 60 32 19 10 3 3 352 341 340 18 41 172 284 271 263 319 360 14 34 173 38 11 359 161 179 193 183 192 256 35 48 108 127 132 141
177 168 167 166 158 144 118 122 84 36 22 9 3 1 357 343 349 339 307 255 233 279 260 253 311 336 5 274 201 55 10 342 146 185 199 192 198 243 299 19 99 135 154 154
164 157 150 145 150 157 184 261 342 352 355 356 354 351 351 339 309 327 334 312 284 277 241 248 283 287 287 249 282 222 2 356 356 187 201 216 217 224 230 114 119 150 165 176
161 159 155 191 278 247 263 266 280 319 334 341 343 343 343 335 302 297 290 314 311 232 226 245 287 296 337 137 155 218 255 349 353 180 200 204 226 228 228 219 204 192 187 198
158 150 165 184 187 262 277 266 274 308 327 336 335 333 338 337 287 272 291 264 259 228 223 245 283 288 127 98 233 221 232 281 344 56 164 189 217 226 234 228 224 222 221 229
143 148 187 269 252 351 271 271 295 325 326 329 328 327 324 336 306 286 266 251 242 207 182 143 319 157 146 160 214 221 241 278 306 332 2 195 214 214 217 228 230 218 242 237
172 184 207 240 266 253 278 289 315 329 326 322 325 323 303 306 309 277 223 224 208 182 139 99 119 151 239 276 252 246 261 273 278 286 294 243 218 207 214 234 241 246 240 235
246 246 234 240 265 265 267 292 315 323 318 319 320 317 269 285 284 229 220 214 184 160 159 142 130 64 349 268 266 276 276 277 267 266 265 265 227 226 223 241 251 261 270 238